Regional Weather Roundup
Issued by NWS Charleston, SC

Current Version | Previous Version | Graphics & Text | Print | Product List | Glossary On
Versions: 1 2 3 4 5 6 7 8 9 10 11 12 13 14 15 16 17 18 19 20 21 22 23 24 25 26 27 28 29 30 31 32 33 34 35 36 37 38 39 40 41 42 43 44 45 46 47 48 49 50
247
ASUS42 KCHS 162212
RWRCHS

REGIONAL WEATHER ROUNDUP
NATIONAL WEATHER SERVICE CHARLESTON SC
600 PM EDT WED AUG 16 2017

NOTE: "FAIR" INDICATES FEW OR NO CLOUDS BELOW 12,000 FEET WITH NO
SIGNIFICANT WEATHER AND/OR OBSTRUCTIONS TO VISIBILITY.

NOT ALL STATIONS ARE QUALITY CONTROLLED. USE DATA WITH CAUTION...
ESPECIALLY DEWPOINT OBSERVATIONS.

SCZ027-030-031-034>040-042>050-162300-
...SOUTHEAST SOUTH CAROLINA...

CITY           SKY/WX    TMP DP  RH WIND       PRES   REMARKS
N CHARLESTON   MOSUNNY   95  73  48 W9        29.95F HX 104
WATERFRONT PRK   N/A    N/A N/A N/A S8        29.81F
JOHNS ISLAND   FAIR      91  81  70 S13       29.97S HX 110
PINOPOLIS        N/A     82  75  78 SW13G23   29.91R
MONCKS CORNER  HVY RAIN  81  75  83 CALM      29.97S
SUMMERVILLE    FAIR      95  73  49 W5        29.97S HX 105
BEAUFORT MCAS  MOSUNNY   89  82  79 S6        29.98S HX 110
BEAUFORT ARPT  FAIR      86  79  79 S8        29.97F HX  99
HILTON HEAD IS MOSUNNY   88  82  84 S9        29.99F HX 108
WALTERBORO     PTCLDY    95  73  49 NW6       29.97S HX 105
ALLENDALE      NOT AVBL

...SOUTHERN MIDLANDS AND PEE DEE...

CITY           SKY/WX    TMP DP  RH WIND       PRES   REMARKS
GEORGETOWN     FAIR      82  77  83 E9        29.99R THUNDER HX  91
KINGSTREE      FAIR      90  75  62 S3        29.96S HX 100
ORANGEBURG     MOSUNNY   95  73  48 VRB3      29.96F HX 104
BARNWELL       FAIR      97  73  46 W7        29.97S HX 107
AIKEN          MOCLDY    91  72  52 W7        30.01F HX  98
MANNING        FAIR      88  81  79 SW7       29.96F HX 105
COLUMBIA       MOSUNNY   96  69  41 W6        29.95F HX 102
SUMTER         MOSUNNY   94  72  49 SW8       29.93F HX 102
FLORENCE       CLOUDY    92  75  57 E5        29.95F HX 103
MYRTLE BEACH   MOSUNNY   90  79  70 S12       29.97F HX 105
N MYRTLE BEACH MOSUNNY   86  79  79 S9        29.97S THUNDER HX  99

$$

GAZ063-065-086>088-099>101-113>116-118-119-134>141-150-162300-
...SOUTHEAST GEORGIA...

CITY           SKY/WX    TMP DP  RH WIND       PRES   REMARKS
SAVANNAH ARPT  MOSUNNY   96  75  50 W7        29.97F HX 108
HUNTER AAF     SUNNY     96  75  50 W7        29.95F HX 107
FORT STEWART   MOSUNNY   95  72  47 W5        29.95F HX 103
STATESBORO     MOSUNNY   95  70  43 NW5       29.98S HX 100
SYLVANIA       CLEAR     90  80  71 SW3       29.99S HX 106
CLAXTON        FAIR      95  75  52 CALM      29.98S HX 107

...CSRA...CENTRAL AND FAR SOUTHEAST GEORGIA...

CITY           SKY/WX    TMP DP  RH WIND       PRES   REMARKS
THOMSON        SUNNY     93  71  47 N5        30.04S HX 100
AUGUSTA-BUSH   MOSUNNY   96  73  47 W7        29.96F HX 105
AUGUSTA-DANIEL MOSUNNY   95  69  42 NW8       29.99S HX 100
SWAINSBORO     FAIR      93  75  55 NW8       30.00S HX 104
VIDALIA        SUNNY     95  73  49 W6        29.99F HX 105
EASTMAN        CLOUDY    93  62  36 SW5       30.03S HX  93
HAZLEHURST     FAIR      94  51  22 N3        29.99S HX  91
ALMA           MOSUNNY   94  71  47 SW7       29.99F HX 101
WAYCROSS       MOSUNNY   94  69  43 N5        30.00S HX 100
JESUP          FAIR      97  70  41 SW6       29.99S HX 103
BAXLEY         FAIR      91  72  52 NW7       29.99F HX  98
BRUNSWICK      MOSUNNY   95  70  43 CALM      29.99F HX 101
SAINT SIMONS   SUNNY     91  79  67 SE9       29.99S HX 107

$$

SCZ027-028-034-036>038-045-046-048>050-GAZ119-141-162300-
...LAKE AND SUPPLEMENTAL COASTAL OBSERVATIONS...

STATION/POSITION TIME  TEMP    WIND        PRES    WAVE   SWELL
                       AIR SEA DIR/SP/G            HT/PER HT/PER/DIR
                 (UTC) (F)     (DEG/KT/KT) (MB)    (FT/S) (FT/S/D)
WINYAH BAY       2045   84     190/ 10     1015.0
LAKE MURRAY      2120   92     200/  7/  8 1013.5F
ACE BASIN NERRS  2045   92        CALM     1015.0
FORT PULASKI     2148   89 86  180/  5/  9 1015.5F
SAPELO ISLAND    2100   96     180/  8     1016.0

$$

ANZ835-935-AMZ111-154-330-350-352-354-370-450-454-472-162300-
...C-MAN AND BUOY OBSERVATIONS...

STATION/POSITION TIME  TEMP    WIND        PRES    WAVE   SWELL
                       AIR SEA DIR/SP/G            HT/PER HT/PER/DIR
                 (UTC) (F)     (DEG/KT/KT) (MB)    (FT/S) (FT/S/D)
BUOY 41004       2150   84 84  220/ 12/ 14 1014.8F   2/ 7   2/120/ 7
BUOY 41008       2150   86 86  180/ 10/ 10 1015.3F   1/ 8
FOLLY BEACH CMAN 2100   87     210/ 14/ 15 1015.7F
CAPERS NEARSHORE 2108   84 86  210/ 14/ 19 1014.5F
FRIPP NEARSHORE  2108   87     200/ 12/ 14 1014.9F


STATION/POSITION TIME  TEMP    WIND        PRES    WAVE   SWELL
                       AIR SEA DIR/SP/G            HT/PER HT/PER/DIR
                 (UTC) (F)     (DEG/KT/KT) (MB)    (FT/S) (FT/S/D)
5E ST. MARYS GA  2130      87                N/A     1/ 8
FRYING PAN BUOY  2150   84 84  180/  2/  4 1014.9F   2/ 5   2/180/ 5
BUOY 41025       2150   81 84   30/ 12/ 16 1015.0R   3/ 7   2/110/ 7
CAPE LOOKOUT NC  2100   80      80/  3/  4 1014.6F
BUOY 41002       2150   84 84  240/ 12/ 14 1015.7F   4/ 6   3/230/ 6
BUOY 41010       2150   87 87  240/  4/  6 1017.1S   2/10   2/ 50/10
ST AUGUSTINE FL  2200   83 83  200/  7/  8 1016.6F


$$




USA.gov is the U.S. government's official web portal to all federal, state and local government web resources and services.